Regional Weather Roundup
Issued by NWS

Home | Current Version | Previous Version | Text Only | Print | Product List | Glossary On
Versions: 1 2 3 4 5 6 7 8 9 10 11 12 13 14 15 16 17 18 19 20 21 22 23 24 25 26 27 28 29 30 31 32 33 34 35 36 37 38 39 40 41 42 43 44 45 46 47 48 49 50
621
ASUS44 KLIX 020410
RWRLA
LOUISIANA WEATHER ROUNDUP
NATIONAL WEATHER SERVICE NEW ORLEANS LA
1100 PM CDT FRI AUG 01 2014

NOTE: "FAIR" INDICATES FEW OR NO CLOUDS BELOW 12,000 FEET WITH NO
      SIGNIFICANT WEATHER AND/OR OBSTRUCTIONS TO VISIBILITY.
      SKY/WX - SKY CONDITION AND SIGNIFICANT WEATHER.
      TMP - AIR TEMPERATURE.    DP   - DEWPOINT TEMPERATURE.
      RH  - RELATIVE HUMIDITY.  PRES - PRESSURE.
      HX  - HEAT INDEX.         WCI  - WIND CHILL INDEX.

*  THESE STATIONS ARE NOT NWS OR FAA STATIONS AND ARE NOT UNDER
   NWS QUALITY CONTROL.

LAZ040-048-061>063-065-066-069-020500-
SOUTHEAST LOUISIANA

CITY           SKY/WX    TMP DP  RH WIND       PRES   REMARKS
N.O. AUDUBON     N/A     82  70  66 MISG        N/A
N.O. INTL ARPT PTCLDY    80  70  71 SE7       29.98R
N.O. LAKEFRONT CLOUDY    81  69  67 SE7       29.99R
N.O. DOWNTOWN* MOCLDY    82  66  57 S7        29.99R
SLIDELL        CLEAR     73  69  87 CALM      29.99R
BATON ROUGE    CLOUDY    76  74  93 E6        29.97R
BOOTHVILLE     CLEAR     79  71  76 SE3       30.00R
BELLE CHASSE   MOCLDY    76  71  85 SE3       29.98R
BOGALUSA*      CLOUDY    77  71  80 CALM      30.01R
GALLIANO*      NOT AVBL
NEW ROADS*     RAIN      77  74  90 NE3       29.97R
GONZALES*      FAIR      78  76  93 CALM      29.97R
HAMMOND*       CLEAR     77  68  73 E5        30.00R
HOUMA*         CLOUDY    77  69  77 CALM      29.98R
PORT FOURCHON* CLEAR     82  70  65 SE7       30.00S

$$

LAZ041-044-053-054-020500-
SOUTHWEST LOUISIANA

CITY           SKY/WX    TMP DP  RH WIND       PRES   REMARKS
LAKE CHARLES   PTCLDY    77  71  82 N9        29.95S
LAFAYETTE      MOCLDY    77  75  93 S8        29.96R
PATTERSON      CLEAR     77  73  88 SE5       30.00R
SALT POINT       N/A     84  77  79 VRB3      29.95R
NEW IBERIA     RAIN      79  75  87 SE5       29.96R
CHENAULT AIRPK CLOUDY    76  71  82 N8        29.96S

$$

LAZ027-028-020500-
CENTRAL LOUISIANA

CITY           SKY/WX    TMP DP  RH WIND       PRES   REMARKS
FORT POLK      MOCLDY    73  70  88 N6        29.97R
ALEXANDRIA INT CLOUDY    73  71  93 NW8       29.95R
ALEXANDRIA     CLOUDY    77  73  87 CALM      29.96R

$$

LAZ001-002-020500-
NORTHWEST LOUISIANA

CITY           SKY/WX    TMP DP  RH WIND       PRES   REMARKS
SHREVEPORT     CLOUDY    70  67  90 NE9       30.00S
BARKSDALE AFB  CLOUDY    69  67  95 NE5       30.01S
DTN SHREVEPORT CLOUDY    69  66  90 NE6       30.01S

$$

LAZ014-016-020500-
NORTHEAST LOUISIANA

CITY           SKY/WX    TMP DP  RH WIND       PRES   REMARKS
MONROE         CLOUDY    70  68  93 NE8       30.01R FOG
TALLULAH       CLOUDY    72  69  90 NE5       30.00S

$$




USA.gov is the U.S. government's official web portal to all federal, state and local government web resources and services.